FW7738 Weather Reports


time (UTC)temp
C
wind
direction
speed
KPH
gust
KPH
rain 1hr
cm
rain 24hr
cm
rain mn
cm
humidity
%
barometer
mb
20260505093044 22 281 4.8 11.3 0.00 0.00 0.00 36 1009.4
20260505092019 22 294 6.4 14.5 0.00 0.00 0.00 37 1009.7
20260505091034 22 284 1.6 4.8 0.00 0.00 0.00 45 1009.6
20260505090030 21 269 4.8 9.7 0.00 0.00 0.00 49 1009.7
20260505085025 21 224 4.8 9.7 0.00 0.00 0.00 51 1009.7
20260505084020 20 321 3.2 9.7 0.00 0.00 0.00 50 1009.8
20260505083036 20 259 3.2 9.7 0.00 0.00 0.00 55 1009.8
20260505082032 19 267 3.2 6.4 0.00 0.00 0.00 59 1009.9
20260505081046 18 253 6.4 11.3 0.00 0.00 0.00 61 1009.9
20260505080022 18 270 4.8 9.7 0.00 0.00 0.00 62 1009.9
20260505075018 18 285 4.8 12.9 0.00 0.00 0.00 60 1010.1
20260505074033 18 282 6.4 12.9 0.00 0.00 0.00 59 1010.1
20260505073029 17 286 6.4 14.5 0.00 0.00 0.00 61 1010.1
20260505072024 17 318 8.0 14.5 0.00 0.00 0.00 64 1010.2
20260505071020 17 308 3.2 9.7 0.00 0.00 0.00 70 1010.2
20260505070016 16 317 4.8 11.3 0.00 0.00 0.00 73 1010.2
20260505065031 16 295 3.2 6.4 0.00 0.00 0.00 75 1010.3
20260505064026 16 279 4.8 11.3 0.00 0.00 0.00 76 1010.2
20260505063021 16 282 6.4 9.7 0.00 0.00 0.00 80 1010.1
20260505062037 15 291 4.8 9.7 0.00 0.00 0.00 81 1010.2
20260505061032 15 304 4.8 11.3 0.00 0.00 0.00 83 1010.0
20260505060028 15 279 4.8 14.5 0.00 0.00 0.00 84 1010.1
20260505055024 15 286 4.8 9.7 0.00 0.00 0.00 86 1010.0
20260505054018 15 297 3.2 6.4 0.00 0.00 0.00 87 1010.0
20260505053034 15 287 4.8 12.9 0.00 0.00 0.00 89 1009.9
20260505052029 15 280 3.2 9.7 0.00 0.00 0.00 90 1009.8
20260505051024 15 295 1.6 4.8 0.00 0.00 0.00 91 1009.8
20260505041016 15 314 0.0 1.6 0.00 0.00 0.00 91 1009.9
20260505040031 15 334 1.6 3.2 0.00 0.00 0.00 91 1009.9
20260505035027 15 313 0.0 1.6 0.00 0.00 0.00 91 1010.0
20260505034022 15 331 0.0 1.6 0.00 0.00 0.00 91 1010.1
20260505033017 15 0.0 0.0 0.00 0.00 0.00 91 1010.1
20260505032032 15 0.0 0.0 0.00 0.00 0.00 90 1010.2
20260505031028 15 0.0 0.0 0.00 0.00 0.00 90 1010.2
20260505030043 15 0.0 0.0 0.00 0.00 0.00 90 1010.2
20260505025038 15 0.0 0.0 0.00 0.00 0.00 90 1010.2
20260505024054 15 318 1.6 1.6 0.00 0.00 0.00 91 1010.2
20260505023029 15 301 1.6 3.2 0.00 0.00 0.00 91 1010.2
20260505022025 15 306 1.6 3.2 0.00 0.00 0.00 92 1010.3
20260505021020 15 330 1.6 4.8 0.00 0.00 0.00 92 1010.1
20260505020016 15 350 1.6 3.2 0.00 0.00 0.00 92 1010.1
20260505015031 15 338 1.6 4.8 0.00 0.00 0.00 92 1010.2
20260505014046 15 341 3.2 4.8 0.00 0.00 0.00 92 1010.1
20260505013042 15 6 1.6 3.2 0.00 0.00 0.00 92 1010.2
20260505012018 15 346 1.6 4.8 0.00 0.00 0.00 91 1010.3
20260505011033 15 345 1.6 3.2 0.00 0.00 0.00 91 1010.5
20260505010109 15 0.0 0.0 0.00 0.00 0.00 91 1010.7
20260505005023 15 344 0.0 1.6 0.00 0.00 0.00 91 1010.8
20260505004019 15 349 0.0 1.6 0.00 0.00 0.00 91 1010.9
20260505003034 15 322 1.6 1.6 0.00 0.00 0.00 91 1010.9
20260505002029 15 356 0.0 1.6 0.00 0.00 0.00 91 1011.0
20260505001025 15 6 0.0 1.6 0.00 0.00 0.00 90 1010.9
20260505000020 15 0.0 0.0 0.00 0.00 0.00 90 1011.0
20260504235015 16 0.0 0.0 0.00 0.00 0.00 90 1010.9
20260504234051 16 0.0 0.0 0.00 0.00 0.00 89 1010.9
20260504233026 16 0.0 0.0 0.00 0.00 0.00 89 1010.9
20260504232021 16 0.0 0.0 0.00 0.00 0.00 89 1011.0
20260504231017 16 0.0 0.0 0.00 0.00 0.00 89 1010.9
20260504230032 16 0.0 0.0 0.00 0.00 0.00 89 1010.9
20260504225027 16 0.0 0.0 0.00 0.00 0.00 89 1010.8
20260504224023 16 0.0 0.0 0.00 0.00 0.00 89 1010.8
20260504223018 16 56 0.0 1.6 0.00 0.00 0.00 89 1010.8
20260504222033 16 0.0 0.0 0.00 0.00 0.00 89 1010.8
20260504221049 16 78 1.6 1.6 0.00 0.00 0.00 89 1010.7
20260504220024 16 75 0.0 1.6 0.00 0.00 0.00 89 1010.6
20260504215020 16 0.0 0.0 0.00 0.00 0.00 88 1010.7
20260504214036 16 81 1.6 1.6 0.00 0.00 0.00 88 1010.6
20260504213031 16 0.0 0.0 0.00 0.00 0.00 88 1010.6
20260504212047 16 78 0.0 3.2 0.00 0.00 0.00 88 1010.6
20260504211042 17 89 3.2 4.8 0.00 0.00 0.00 88 1010.5
20260504210018 17 86 1.6 3.2 0.00 0.00 0.00 88 1010.6
20260504205033 17 81 3.2 4.8 0.00 0.00 0.00 87 1010.4
20260504204028 17 65 1.6 4.8 0.00 0.00 0.00 87 1010.4
20260504203023 17 59 3.2 11.3 0.00 0.00 0.00 87 1010.2
20260504202019 17 62 3.2 12.9 0.00 0.00 0.00 88 1010.1
20260504201034 17 57 3.2 12.9 0.00 0.00 0.00 88 1009.8
20260504200030 17 51 3.2 11.3 0.00 0.00 0.00 87 1009.6
20260504195025 17 66 4.8 12.9 0.00 0.00 0.00 86 1009.5
20260504194020 18 70 3.2 11.3 0.00 0.00 0.00 85 1009.4
20260504193016 18 57 3.2 9.7 0.00 0.00 0.00 85 1009.1
20260504192031 18 71 3.2 12.9 0.00 0.00 0.00 84 1009.0
20260504191027 18 64 3.2 11.3 0.00 0.00 0.00 83 1008.9
20260504190023 18 60 6.4 14.5 0.00 0.00 0.00 83 1009.0
20260504185018 18 61 3.2 14.5 0.00 0.00 0.00 81 1008.8
20260504184033 19 50 8.0 16.1 0.00 0.00 0.00 80 1008.8
20260504183029 19 56 8.0 17.7 0.00 0.00 0.00 79 1008.6
20260504182024 19 57 8.0 24.1 0.00 0.00 0.00 79 1008.6
20260504181020 19 62 8.0 25.7 0.00 0.00 0.00 80 1008.5
20260504180035 19 68 6.4 20.9 0.00 0.00 0.00 80 1008.4
20260504175030 20 62 4.8 16.1 0.00 0.00 0.00 78 1008.4
20260504174025 19 82 6.4 22.5 0.00 0.00 0.00 78 1008.1
20260504173021 19 88 9.7 17.7 0.00 0.00 0.00 79 1008.2
20260504172016 19 86 6.4 16.1 0.00 0.00 0.00 78 1008.1
20260504171052 20 91 9.7 24.1 0.00 0.00 0.00 78 1007.9
20260504151016 21 114 11.3 24.1 0.00 0.00 0.00 72 1008.1
20260504141029 21 161 11.3 20.9 0.00 0.00 0.00 68 1008.3